RH
53 55 60 62 68 73 73 74 78 79 76 75 73 72 65 59 59 59 56 55 54 52 51 50 50 49 49 49 47 44 41 39
51 53 55 57 60 65 69 77 76 73 70 65 59 56 56 57 55 48 48 50 51 51 52 52 52 51 49 47 44 44 40 38
51 54 57 60 66 73 76 73 67 66 60 57 55 55 54 48 48 50 54 57 58 59 57 56 53 51 50 44 34 31 32 42
53 60 65 65 65 65 64 63 59 54 52 50 54 50 48 53 57 61 60 59 59 59 55 51 47 43 38 34 33 32 32 34
59 56 53 52 52 55 54 54 55 49 48 48 51 57 62 66 69 68 67 62 57 53 50 43 38 33 30 33 31 31 34 32
53 52 53 53 51 52 51 51 48 47 49 54 59 62 66 68 67 65 63 58 52 49 42 36 32 29 30 29 32 34 39 39
50 53 55 55 54 50 48 48 49 52 58 60 60 60 63 65 61 53 49 47 45 38 34 32 31 29 29 31 33 39 48 52
54 57 58 54 53 53 51 55 55 57 59 60 60 59 60 60 49 46 45 39 35 32 29 29 30 31 31 46 52 52 44 49
51 55 57 55 56 54 56 58 58 57 57 61 67 63 57 56 48 45 41 34 32 30 30 29 30 35 41 46 59 47 45 48
51 53 57 57 55 56 57 59 61 58 64 72 79 64 58 48 44 42 35 33 32 32 33 33 41 42 49 58 52 45 45 45
52 54 58 56 57 59 60 61 64 67 72 77 61 56 52 46 39 37 35 34 34 33 37 43 49 43 58 53 45 48 47 53
49 52 55 58 61 61 63 66 68 69 74 67 55 53 49 38 40 41 40 36 34 32 33 39 38 47 46 48 63 52 53 59
48 50 55 59 61 62 66 66 68 72 74 64 51 47 43 42 45 44 41 36 34 33 31 37 38 44 46 50 55 55 60 66
46 49 53 58 62 64 66 67 75 76 53 50 51 47 43 48 49 45 40 37 35 33 35 37 40 45 48 50 54 60 66 72
46 49 54 58 62 63 67 72 67 51 51 53 50 46 49 51 49 44 38 35 33 37 37 38 40 42 48 53 59 66 75 79
46 49 54 57 59 61 68 65 53 52 55 54 50 50 53 51 48 42 36 33 34 38 35 37 39 44 52 60 68 73 75 75
46 51 53 57 59 64 65 57 55 58 56 53 53 55 53 50 46 38 33 34 37 41 46 49 49 54 60 67 73 73 67 54
44 48 55 60 62 62 64 62 60 59 55 57 59 54 51 46 39 35 39 35 39 41 47 55 55 59 55 55 56 50 47 44
45 52 58 62 62 69 66 63 62 60 62 65 54 52 47 39 35 35 37 37 41 43 49 51 53 51 50 49 46 45 43 44